Location: Champseau
(45.8333°N, 1.7667°E)
Time: 06:56:13
(UTC+00:00)

STRAND 1 - Pass Details

Date: 30 November 2021
Orbit: 768 x 780 km, 98.4° (Epoch: 22 January)

Event Time Altitude Azimuth Distance (km) Brightness Sun altitude
Rises 04:48:47 0° 125° (SE) 3,252 ? -24.4°
Reaches altitude 10° 04:51:33 10° 110° (ESE) 2,326 ? -23.9°
Maximum altitude 04:55:24 22° 61° (ENE) 1,656 ? -23.2°
Drops below altitude 10° 04:59:14 10° 13° (NNE) 2,332 ? -22.6°
Sets 05:02:01 0° 358° (N) 3,261 ? -22.1°
